This is the latest recevied weather packets stored in our database for station/object HB3YKO-13. If no packets are shown the sender has not sent any weather packets the latest 10 day(s).
| Time | Temp. | Humidity | Pressure | Rain* | Wind** | Luminosity | Snow |
|---|---|---|---|---|---|---|---|
| 1777877386 | -12.78° C | 79% | 0 hPa | 0 mm | - | - | - |
| 1777877086 | -11.67° C | 79% | 0 hPa | 0 mm | - | - | - |
| 1777876786 | -11.11° C | 81% | 0 hPa | 0 mm | - | - | - |
| 1777876486 | -10.56° C | 82% | 0 hPa | 0 mm | - | - | - |
| 1777876186 | -11.11° C | 83% | 0 hPa | 0 mm | - | - | - |
| 1777875886 | -10.56° C | 84% | 0 hPa | 0 mm | - | - | - |
| 1777875586 | -10.56° C | 84% | 0 hPa | 0 mm | - | - | - |
| 1777875286 | -10.56° C | 83% | 0 hPa | 0 mm | - | - | - |
| 1777874986 | -11.11° C | 78% | 0 hPa | 0 mm | - | - | - |
| 1777874686 | -10.56° C | 79% | 0 hPa | 0 mm | - | - | - |
| 1777874386 | -10° C | 78% | 0 hPa | 0 mm | - | - | - |
| 1777874086 | -10° C | 78% | 0 hPa | 0 mm | - | - | - |
| 1777873786 | -11.67° C | 79% | 0 hPa | 0 mm | - | - | - |
| 1777873486 | -10° C | 80% | 0 hPa | 0 mm | - | - | - |
| 1777873186 | -10.56° C | 79% | 0 hPa | 0 mm | - | - | - |
| 1777872886 | -10° C | 79% | 0 hPa | 0 mm | - | - | - |
| 1777872586 | -10° C | 79% | 0 hPa | 0 mm | - | - | - |
| 1777872286 | -10° C | 79% | 0 hPa | 0 mm | - | - | - |
| 1777871986 | -10° C | 79% | 0 hPa | 0 mm | - | - | - |
| 1777871686 | -10° C | 79% | 0 hPa | 0 mm | - | - | - |
| 1777871386 | -10° C | 79% | 0 hPa | 0 mm | - | - | - |
| 1777871086 | -11.11° C | 80% | 0 hPa | 0 mm | - | - | - |
| 1777870786 | -11.11° C | 78% | 0 hPa | 0 mm | - | - | - |
| 1777870486 | -10.56° C | 78% | 0 hPa | 0 mm | - | - | - |
| 1777870186 | -11.11° C | 78% | 0 hPa | 0 mm | - | - | - |
* Rain latest hour (hover to see other rain measurements)
** Current wind speed in m/s (hover to see current wind gust speed)